Time,TemperatureF,DewpointF,PressureIn,WindDirection,WindDirectionDegrees,WindSpeedMPH,WindSpeedGustMPH,Humidity,HourlyPrecipIn,Conditions,Clouds,dailyrainin,SoftwareType,DateUTC
2013-03-02 00:52:00,40.6,33.6,29.68,West,270,0.0,-999.0,76,-99.99,,,0.00,Acu-Link.com,2013-03-02 05:52:00,
2013-03-02 01:07:00,40.3,33.0,29.69,ESE,112,0.0,-999.0,75,-99.99,,,0.00,Acu-Link.com,2013-03-02 06:07:00,
2013-03-02 01:25:00,38.8,32.9,29.68,ESE,112,0.0,-999.0,79,-99.99,,,0.00,Acu-Link.com,2013-03-02 06:25:00,
2013-03-02 02:08:00,38.1,32.8,29.69,ESE,112,0.0,-999.0,81,-99.99,,,0.00,Acu-Link.com,2013-03-02 07:08:00,
2013-03-02 02:34:00,38.1,32.8,29.68,SE,135,0.0,-999.0,81,-99.99,,,0.00,Acu-Link.com,2013-03-02 07:34:00,
2013-03-02 02:49:00,39.9,33.6,29.68,SW,225,0.0,-999.0,78,-99.99,,,0.00,Acu-Link.com,2013-03-02 07:49:00,
2013-03-02 03:10:00,40.3,33.3,29.66,West,270,1.1,-999.0,76,-99.99,,,0.00,Acu-Link.com,2013-03-02 08:10:00,
2013-03-02 03:32:00,40.3,33.3,29.65,WNW,292,0.0,-999.0,76,-99.99,,,0.00,Acu-Link.com,2013-03-02 08:32:00,
2013-03-02 03:47:00,38.7,32.8,29.66,WNW,292,0.0,-999.0,79,-99.99,,,0.00,Acu-Link.com,2013-03-02 08:47:00,
2013-03-02 04:18:00,38.1,32.8,29.66,WNW,292,0.0,-999.0,81,-99.99,,,0.00,Acu-Link.com,2013-03-02 09:18:00,
2013-03-02 04:33:00,37.8,31.9,29.66,WSW,247,0.0,-999.0,79,-99.99,,,0.00,Acu-Link.com,2013-03-02 09:33:00,
2013-03-02 04:48:00,37.6,32.0,29.67,NNE,22,0.0,-999.0,80,-99.99,,,0.00,Acu-Link.com,2013-03-02 09:48:00,
2013-03-02 05:04:00,37.2,31.6,29.67,SE,135,0.0,-999.0,80,-99.99,,,0.00,Acu-Link.com,2013-03-02 10:04:00,
2013-03-02 05:19:00,37.4,31.8,29.67,ESE,112,1.7,-999.0,80,-99.99,,,0.00,Acu-Link.com,2013-03-02 10:19:00,
2013-03-02 05:34:00,37.2,31.6,29.67,West,270,1.1,-999.0,80,-99.99,,,0.00,Acu-Link.com,2013-03-02 10:34:00,
2013-03-02 05:49:00,37.0,31.4,29.67,NNE,22,1.7,-999.0,80,-99.99,,,0.00,Acu-Link.com,2013-03-02 10:49:00,
2013-03-02 06:04:00,36.9,31.3,29.68,West,270,1.7,-999.0,80,-99.99,,,0.00,Acu-Link.com,2013-03-02 11:04:00,
2013-03-02 06:19:00,36.5,30.9,29.67,East,90,1.7,-999.0,80,-99.99,,,0.00,Acu-Link.com,2013-03-02 11:19:00,
2013-03-02 06:34:00,36.3,31.0,29.68,East,90,0.0,-999.0,81,-99.99,,,0.00,Acu-Link.com,2013-03-02 11:34:00,
2013-03-02 06:49:00,36.1,30.8,29.68,West,270,0.0,-999.0,81,-99.99,,,0.00,Acu-Link.com,2013-03-02 11:49:00,
2013-03-02 07:08:00,36.1,30.8,29.68,West,270,1.7,-999.0,81,-99.99,,,0.00,Acu-Link.com,2013-03-02 12:08:00,
2013-03-02 07:32:00,36.1,30.8,29.68,WSW,247,1.7,-999.0,81,-99.99,,,0.00,Acu-Link.com,2013-03-02 12:32:00,
2013-03-02 07:49:00,38.3,30.4,29.69,West,270,1.7,-999.0,73,-99.99,,,0.00,Acu-Link.com,2013-03-02 12:49:00,
2013-03-02 08:17:00,40.5,31.8,29.69,WSW,247,2.2,-999.0,71,-99.99,,,0.00,Acu-Link.com,2013-03-02 13:17:00,
2013-03-02 08:32:00,43.5,33.3,29.68,SE,135,1.7,-999.0,67,-99.99,,,0.00,Acu-Link.com,2013-03-02 13:32:00,
2013-03-02 08:47:00,45.5,33.2,29.69,NNE,22,1.7,-999.0,62,-99.99,,,0.00,Acu-Link.com,2013-03-02 13:47:00,
2013-03-02 09:03:00,47.8,33.3,29.67,East,90,1.7,-999.0,57,-99.99,,,0.00,Acu-Link.com,2013-03-02 14:03:00,
2013-03-02 09:18:00,46.9,32.9,29.67,WNW,292,2.2,-999.0,58,-99.99,,,0.00,Acu-Link.com,2013-03-02 14:18:00,
2013-03-02 09:33:00,46.9,32.9,29.66,ESE,112,1.7,-999.0,58,-99.99,,,0.00,Acu-Link.com,2013-03-02 14:33:00,
2013-03-02 09:48:00,47.8,32.4,29.65,NNE,22,1.7,-999.0,55,-99.99,,,0.00,Acu-Link.com,2013-03-02 14:48:00,
2013-03-02 10:04:00,47.3,30.1,29.64,ESE,112,3.7,-999.0,51,-99.99,,,0.00,Acu-Link.com,2013-03-02 15:04:00,
2013-03-02 10:19:00,50.4,30.9,29.64,NNW,337,1.7,-999.0,47,-99.99,,,0.00,Acu-Link.com,2013-03-02 15:19:00,
2013-03-02 11:00:00,51.1,32.1,29.63,South,180,2.2,-999.0,48,-99.99,,,0.00,Acu-Link.com,2013-03-02 16:00:00,
2013-03-02 11:54:00,53.2,32.4,29.63,NNE,22,3.2,-999.0,45,-99.99,,,0.00,Acu-Link.com,2013-03-02 16:54:00,
2013-03-02 12:10:00,52.2,29.8,29.62,West,270,2.2,-999.0,42,-99.99,,,0.00,Acu-Link.com,2013-03-02 17:10:00,
2013-03-02 12:28:00,52.0,29.6,29.61,SSE,157,5.3,-999.0,42,-99.99,,,0.00,Acu-Link.com,2013-03-02 17:28:00,
2013-03-02 14:44:00,55.0,32.3,29.57,SE,135,2.7,-999.0,42,-99.99,,,0.00,Acu-Link.com,2013-03-02 19:44:00,
2013-03-02 15:17:00,54.7,32.1,29.57,South,180,2.7,-999.0,42,-99.99,,,0.00,Acu-Link.com,2013-03-02 20:17:00,
2013-03-02 15:32:00,54.3,32.9,29.57,WSW,247,6.3,-999.0,44,-99.99,,,0.00,Acu-Link.com,2013-03-02 20:32:00,
2013-03-02 17:51:00,48.9,31.6,29.60,SE,135,1.7,-999.0,51,-99.99,,,0.00,Acu-Link.com,2013-03-02 22:51:00,
2013-03-02 20:08:00,44.8,31.8,29.63,SW,225,1.7,-999.0,60,-99.99,,,0.00,Acu-Link.com,2013-03-03 01:08:00,
2013-03-02 20:23:00,44.2,32.0,29.63,WNW,292,1.7,-999.0,62,-99.99,,,0.00,Acu-Link.com,2013-03-03 01:23:00,
2013-03-02 20:38:00,43.7,31.9,29.64,SSW,202,0.0,-999.0,63,-99.99,,,0.00,Acu-Link.com,2013-03-03 01:38:00,
2013-03-02 20:54:00,42.8,31.9,29.64,SSE,157,0.0,-999.0,65,-99.99,,,0.00,Acu-Link.com,2013-03-03 01:54:00,
2013-03-02 21:13:00,41.7,31.9,29.64,SSE,157,0.0,-999.0,68,-99.99,,,0.00,Acu-Link.com,2013-03-03 02:13:00,
2013-03-02 21:32:00,40.5,31.5,29.64,North,0,2.2,-999.0,70,-99.99,,,0.00,Acu-Link.com,2013-03-03 02:32:00,
2013-03-02 21:55:00,40.5,32.2,29.66,NE,45,1.7,-999.0,72,-99.99,,,0.00,Acu-Link.com,2013-03-03 02:55:00,
2013-03-02 22:14:00,40.5,31.8,29.67,NE,45,2.2,-999.0,71,-99.99,,,0.00,Acu-Link.com,2013-03-03 03:14:00,
2013-03-02 22:32:00,40.1,31.1,29.65,NE,45,1.7,-999.0,70,-99.99,,,0.00,Acu-Link.com,2013-03-03 03:32:00,
2013-03-02 22:48:00,39.9,30.9,29.66,NNE,22,2.2,-999.0,70,-99.99,,,0.00,Acu-Link.com,2013-03-03 03:48:00,
2013-03-02 23:15:00,39.2,30.9,29.66,North,0,2.7,-999.0,72,-99.99,,,0.00,Acu-Link.com,2013-03-03 04:15:00,
2013-03-02 23:31:00,39.2,31.3,29.64,SW,225,1.1,-999.0,73,-99.99,,,0.00,Acu-Link.com,2013-03-03 04:31:00,